Location: STAR School
(35.3054°N, 111.2976°W)
Time: 01:18:39
(UTC-07:00)

Transit 4A - Visible Passes

Search period start: 19 May 2019 00:00
Search period end: 29 May 2019 00:00
Orbit: 862 x 983 km, 66.8° (Epoch: 19 May)

Date Brightness Start Highest point End Pass type
(mag) Time Alt. Az. Time Alt. Az. Time Alt. Az.
19 May 8.8 00:55:29 10° NNW 01:01:36 44° ENE 01:01:57 43° ENE visible
19 May 9.4 02:42:24 10° NW 02:45:24 23° WNW 02:45:24 23° WNW visible
19 May 10.4 23:21:10 10° NNE 23:23:24 12° NE 23:25:37 10° ENE visible
20 May 8.3 01:04:40 10° NNW 01:10:24 61° NNE 01:10:24 61° NNE visible
20 May 9.9 02:52:42 10° WNW 02:53:52 13° WNW 02:53:52 13° WNW visible
20 May 10.1 23:29:11 10° N 23:33:13 17° NE 23:35:29 14° ENE visible
21 May 8.4 01:13:59 10° NNW 01:18:57 56° NNW 01:18:57 56° NNW visible
21 May 9.6 23:37:51 10° N 23:42:57 24° NE 23:44:07 23° ENE visible
22 May 8.8 01:23:27 10° NW 01:27:36 39° WNW 01:27:36 39° WNW visible
22 May 9.1 23:46:46 10° N 23:52:33 35° NE 23:52:50 34° ENE visible
23 May 9.4 01:33:08 10° NW 01:36:19 26° WNW 01:36:19 26° WNW visible
23 May 8.6 23:55:51 10° NNW 00:01:36 49° NE 00:01:36 49° NE visible
24 May 9.8 01:43:07 10° NW 01:45:05 17° WNW 01:45:05 17° WNW visible
24 May 10.2 22:20:59 10° NNE 22:24:01 13° NE 22:26:55 10° ENE visible
25 May 8.3 00:05:04 10° NNW 00:10:24 61° N 00:10:24 61° N visible
25 May 10.2 01:53:43 10° WNW 01:53:54 10° WNW 01:53:54 10° WNW visible
25 May 9.8 22:29:21 10° N 22:33:48 19° NE 22:35:47 17° ENE visible
26 May 8.5 00:14:26 10° NNW 00:19:17 52° NW 00:19:17 52° NW visible
26 May 9.3 22:38:06 10° N 22:43:29 27° NE 22:44:42 26° ENE visible
27 May 9.0 00:23:59 10° NW 00:28:11 37° WNW 00:28:11 37° WNW visible
27 May 8.7 22:47:06 10° NNW 22:53:04 39° ENE 22:53:38 39° ENE visible
28 May 9.5 00:33:45 10° NW 00:37:08 25° WNW 00:37:08 25° WNW visible
28 May 10.3 21:13:32 10° NNE 21:14:46 11° NE 21:15:59 10° NE visible
28 May 8.2 22:56:14 10° NNW 23:02:33 58° ENE 23:02:38 58° ENE visible
